Tracking 27422 objects as of 30-May-2023
HD Live streaming from Space Station
objects crossing your sky now

COSMOS 1581

Track COSMOS 1581 now!
COSMOS 1581 is classified as:


NORAD ID: 15095
Int'l Code: 1984-071A
Perigee: 1,906.9 km
Apogee: 38,619.5 km
Inclination: 66.0 °
Period: 721.0 minutes
Semi major axis: 26634 km
RCS: 9.1322 m2 (large)
Launch date: July 3, 1984
Source: Commonwealth of Independent States (former USSR) (CIS)
Launch site: PLESETSK MISSILE AND SPACE COMPLEX (PKMTR)
Your satellite tracking list
Your tracking list is empty




NASA's NSSDC Master Catalog

Two Line Element Set (TLE):
1 15095U 84071A   23149.27831583 -.00000725  00000-0  00000-0 0  9991
2 15095  65.9878 120.8669 6892008  23.8819 356.5872  1.99730412258200
Source of the keplerian elements: AFSPC